TimeEDT,TemperatureF,Dew PointF,Humidity,Sea Level PressureIn,VisibilityMPH,Wind Direction,Wind SpeedMPH,Gust SpeedMPH,PrecipitationIn,Events,Conditions,WindDirDegrees,DateUTC
12:52 AM,37.0,32.0,82,30.38,10.0,NNE,4.6,-,N/A,,Clear,20,2013-10-29 04:52:00
1:52 AM,36.0,30.9,82,30.39,10.0,NNE,4.6,-,N/A,,Clear,20,2013-10-29 05:52:00
2:52 AM,36.0,30.0,79,30.38,10.0,NE,3.5,-,N/A,,Clear,40,2013-10-29 06:52:00
3:52 AM,35.1,30.0,82,30.39,10.0,North,3.5,-,N/A,,Clear,10,2013-10-29 07:52:00
4:52 AM,34.0,30.0,85,30.39,10.0,North,3.5,-,N/A,,Clear,360,2013-10-29 08:52:00
5:52 AM,33.1,30.0,89,30.40,10.0,Calm,Calm,-,N/A,,Clear,0,2013-10-29 09:52:00
6:52 AM,33.1,28.9,85,30.41,10.0,North,3.5,-,N/A,,Clear,10,2013-10-29 10:52:00
7:52 AM,33.1,30.0,89,30.41,10.0,Calm,Calm,-,N/A,,Clear,0,2013-10-29 11:52:00
8:52 AM,34.0,30.9,89,30.42,10.0,NNE,3.5,-,N/A,,Clear,20,2013-10-29 12:52:00
9:52 AM,41.0,34.0,76,30.43,10.0,Calm,Calm,-,N/A,,Clear,0,2013-10-29 13:52:00
10:52 AM,46.0,37.0,71,30.43,10.0,ENE,3.5,-,N/A,,Clear,60,2013-10-29 14:52:00
11:52 AM,48.9,37.9,66,30.41,10.0,ESE,4.6,-,N/A,,Clear,110,2013-10-29 15:52:00
12:52 PM,53.1,39.0,59,30.39,10.0,East,4.6,-,N/A,,Clear,80,2013-10-29 16:52:00
1:52 PM,55.0,37.9,53,30.35,10.0,East,8.1,-,N/A,,Clear,100,2013-10-29 17:52:00
2:52 PM,54.0,39.0,57,30.33,10.0,East,8.1,-,N/A,,Clear,100,2013-10-29 18:52:00
3:52 PM,54.0,39.9,59,30.32,10.0,ENE,8.1,-,N/A,,Clear,70,2013-10-29 19:52:00
4:52 PM,52.0,39.9,63,30.30,10.0,ENE,9.2,-,N/A,,Clear,70,2013-10-29 20:52:00
5:52 PM,48.9,39.9,71,30.30,10.0,ENE,9.2,-,N/A,,Clear,70,2013-10-29 21:52:00
6:52 PM,46.9,39.9,77,30.30,10.0,East,5.8,-,N/A,,Clear,80,2013-10-29 22:52:00
7:52 PM,44.1,39.9,85,30.30,10.0,East,3.5,-,N/A,,Clear,90,2013-10-29 23:52:00
8:52 PM,44.1,39.9,85,30.30,10.0,East,3.5,-,N/A,,Clear,80,2013-10-30 00:52:00
9:52 PM,43.0,39.9,89,30.28,9.0,ESE,3.5,-,N/A,,Clear,110,2013-10-30 01:52:00
10:52 PM,43.0,39.9,89,30.26,10.0,East,5.8,-,N/A,,Clear,90,2013-10-30 02:52:00
11:52 PM,44.1,41.0,89,30.24,10.0,SE,3.5,-,N/A,,Clear,130,2013-10-30 03:52:00